Location: Bacharowice
(49.9333°N, 19.5833°E)
Time: 07:39:38
(UTC+00:00)

Okean 3 - Pass Details

Date: 11 May 2021
Orbit: 575 x 601 km, 82.5° (Epoch: 21 June)

Event Time Altitude Azimuth Distance (km) Brightness Sun altitude
Exits shadow 22:14:17 34° 101° (E) 977 4.4 -21.7°
Maximum altitude 22:14:35 35° 91° (E) 968 4.4 -21.7°
Drops below altitude 10° 22:18:27 10° 26° (NNE) 1,928 6.9 -21.8°
Sets 22:20:46 0° 18° (NNE) 2,829 8.1 -21.8°
